GEFSMA_500_meanwind_228.txt.gz
Wind_Speed
7 7 7 7 8 8 8 7 7 7 7 7 7 7 7 7 7 6 5 5 5 5 5 4 5 5 4 4 4 5 5 5 6 6 6 6 6 6 6 6 6 7 7
5 6 6 6 7 7 7 6 6 6 6 6 6 6 6 7 7 6 7 7 6 6 5 5 6 6 6 5 5 5 6 6 6 6 7 7 7 7 7 7 8 8 9
6 6 5 5 5 5 5 5 6 6 5 5 5 5 6 7 7 7 7 8 7 7 7 6 6 6 7 7 7 7 7 7 7 7 7 8 8 8 9 9 9 9 10
5 5 5 5 5 5 5 5 5 6 5 5 5 5 6 7 7 7 8 8 8 8 8 8 7 7 8 8 8 8 8 7 8 8 8 8 9 9 9 10 10 11 11
5 5 5 4 5 5 4 5 5 6 6 5 5 5 6 6 6 7 7 8 9 9 9 9 9 9 8 9 9 8 8 8 8 8 8 9 9 9 10 10 10 11 12
5 5 5 4 4 4 4 4 5 5 5 5 5 5 6 6 7 6 6 7 8 8 9 10 10 10 9 9 9 9 9 8 9 9 9 9 9 9 10 10 10 11 11
3 3 3 3 3 3 3 4 4 5 6 6 6 6 6 7 7 8 8 9 9 9 9 10 10 10 10 9 9 9 9 9 9 10 10 9 9 10 10 10 10 10 10
2 1 1 1 2 2 3 3 4 5 6 6 7 7 7 7 9 10 10 10 10 9 9 10 10 10 10 10 11 10 10 11 11 11 11 10 10 10 10 11 11 11 11
1 1 1 2 2 3 4 3 4 5 5 6 7 8 8 8 9 10 11 11 11 12 12 11 11 11 11 11 12 12 12 12 12 12 12 12 11 11 12 12 12 12 12
1 2 2 3 3 4 5 5 4 5 6 7 7 8 8 9 9 9 11 11 12 13 14 14 13 12 12 13 13 13 13 12 12 13 14 13 13 13 13 14 14 14 14
3 3 4 4 5 5 6 7 6 6 6 7 8 8 8 9 9 10 11 11 12 13 14 14 14 14 14 14 14 14 14 14 14 14 14 15 15 14 15 15 15 15 16
4 4 4 5 6 6 6 7 7 7 7 8 9 10 10 10 10 11 12 13 13 13 13 13 14 14 14 14 15 16 15 15 15 15 14 15 15 15 15 16 16 16 16
5 5 6 7 7 7 8 8 9 9 9 10 10 11 11 11 12 12 12 13 14 14 14 14 13 13 14 15 15 16 17 17 17 17 17 16 16 17 17 17 17 17 17
6 6 7 8 9 9 8 9 10 10 10 11 12 12 12 12 12 12 12 13 14 14 14 14 15 15 16 16 16 17 18 18 18 18 18 18 18 18 18 18 18 18 18
7 8 8 8 9 10 10 10 10 11 12 12 12 13 13 13 11 11 12 12 14 14 15 16 16 16 16 16 16 17 17 18 19 19 18 18 19 19 19 19 19 19 19
10 10 10 10 11 12 12 12 12 13 13 14 13 13 14 14 14 13 13 14 14 15 16 17 17 17 17 18 18 18 18 18 19 20 20 20 20 20 20 21 21 20 20
13 13 13 13 14 14 15 15 16 16 16 15 16 16 16 16 16 16 16 16 16 16 17 17 17 18 19 19 19 19 19 19 19 20 20 21 22 22 22 22 23 22 22
15 15 16 16 17 17 17 18 19 18 18 17 17 17 17 18 18 18 18 18 18 18 18 18 18 19 19 19 20 20 20 20 20 21 22 23 22 22 23 24 24 24 24
18 18 18 19 20 20 19 19 20 20 20 20 19 19 19 19 19 19 19 19 19 19 19 19 20 20 20 21 21 21 22 22 22 23 23 23 23 23 24 25 24 24 24
21 21 21 21 22 22 21 21 22 22 21 22 22 22 22 21 21 21 22 22 22 22 22 22 22 22 22 22 23 24 24 24 24 24 24 24 24 25 25 25 25 26 26
23 23 23 23 23 23 23 23 24 24 24 24 25 25 25 25 25 24 24 24 25 24 24 24 24 24 24 25 25 25 26 26 26 26 26 26 26 26 26 26 27 27 27
25 26 26 26 25 25 25 26 26 26 26 26 26 26 26 27 27 27 26 26 26 26 26 26 26 26 26 27 27 26 26 26 26 27 27 27 28 27 28 27 28 28 28
28 27 27 28 28 27 27 27 27 28 29 28 28 28 28 28 29 29 29 29 29 29 29 29 28 28 28 28 29 28 28 28 28 28 28 28 28 28 29 29 30 30 29
30 30 29 31 30 29 29 29 29 30 30 29 29 29 29 30 31 31 32 32 31 31 32 32 31 30 30 30 30 30 29 29 29 29 29 29 29 30 31 31 31 31 32
32 32 33 32 30 29 30 30 30 30 31 30 30 30 31 32 33 33 33 33 32 31 32 32 32 32 31 31 31 31 31 30 30 30 30 30 30 31 32 33 33 33 33
34 35 35 33 32 31 31 31 31 32 32 32 31 31 31 32 33 34 34 34 32 32 32 32 33 33 32 32 32 32 32 31 31 31 32 32 32 32 33 34 34 33 33

GEFSMA_500_meanwind_234.txt.gz
Wind_Speed
8 8 8 8 8 7 6 6 6 5 6 7 7 7 6 5 5 5 5 5 5 5 5 5 5 6 7 7 7 6 6 7 6 7 7 7 7 7 7 7 7 7 7
8 7 8 8 7 6 5 6 5 5 6 7 7 7 6 5 5 6 6 6 6 6 6 6 6 6 7 7 7 8 7 7 7 7 8 8 9 9 8 8 9 9 9
7 7 7 7 5 5 5 6 5 4 4 6 6 6 7 7 6 6 6 7 7 7 7 7 7 7 8 8 8 9 9 9 8 8 9 9 9 10 10 10 10 10 11
6 5 6 5 5 5 5 5 4 4 5 5 5 6 6 6 6 7 6 6 7 8 9 9 9 8 8 9 9 9 9 9 10 10 10 10 10 10 10 11 11 11 11
5 4 4 4 4 4 5 5 4 5 5 5 5 5 6 6 6 7 6 7 7 8 9 9 9 9 9 9 9 10 10 10 10 10 11 11 11 11 11 11 11 11 11
5 4 3 3 3 4 4 4 4 5 5 5 5 5 6 6 7 7 7 8 8 9 9 9 10 10 10 10 11 11 11 12 11 11 11 12 12 12 11 12 11 11 11
4 4 4 3 3 4 4 4 5 5 6 6 6 7 7 7 8 8 8 8 9 9 10 11 11 11 11 12 12 12 12 12 12 12 12 12 12 12 13 13 13 13 13
4 4 4 4 4 4 5 5 6 7 7 7 8 9 9 10 10 10 10 10 11 11 11 12 12 13 13 13 13 13 13 12 12 12 13 13 13 14 14 14 14 14 14
4 4 4 4 5 5 6 6 7 7 8 9 9 10 11 11 11 12 13 13 12 12 12 12 12 13 13 13 14 14 14 14 13 13 13 13 14 15 15 15 15 16 16
4 5 5 5 6 7 7 8 8 8 9 9 9 9 10 11 11 13 13 14 14 13 14 14 13 13 14 14 15 15 15 15 14 14 15 15 16 16 16 16 17 17 17
6 7 7 8 8 8 9 9 10 10 10 11 11 11 11 11 12 13 14 15 15 15 15 15 15 15 15 16 16 16 16 16 16 16 17 17 17 17 17 17 17 17 17
8 8 9 9 9 10 11 11 11 11 11 12 12 12 13 13 14 14 14 15 16 16 16 16 16 15 16 16 16 16 17 17 18 17 17 18 19 18 18 18 18 18 18
9 10 10 10 11 12 13 13 13 13 13 13 13 14 14 15 15 15 15 16 16 17 17 17 17 17 17 17 17 16 16 17 18 19 19 18 18 19 19 18 18 18 18
10 11 11 11 12 13 13 14 14 15 15 15 15 15 15 15 16 17 17 17 17 17 17 17 18 18 18 18 18 18 18 18 19 19 19 19 19 19 19 19 19 19 19
12 13 14 14 14 14 14 14 15 15 16 17 17 17 17 17 18 19 19 18 18 18 17 18 19 19 19 19 19 19 19 19 19 19 20 19 20 20 21 21 21 21 22
15 15 16 16 16 16 16 17 17 18 18 19 18 18 19 20 20 20 20 20 20 20 19 19 19 20 20 20 20 20 20 20 21 21 22 22 21 21 22 21 22 22 22
17 17 17 18 18 18 18 19 20 20 20 21 20 20 21 21 21 21 21 21 21 21 21 21 20 21 21 21 21 21 22 22 22 23 23 24 23 23 23 23 23 23 24
19 19 18 19 19 19 20 20 21 21 21 21 22 22 22 23 23 23 23 22 22 22 22 22 22 22 22 22 23 23 24 24 25 25 25 25 25 25 24 24 24 25 25
21 21 20 20 20 21 21 22 22 22 22 22 23 23 24 24 24 24 24 24 24 24 24 24 24 24 24 24 25 25 25 25 26 26 26 26 26 26 25 25 26 26 26
21 22 21 22 22 23 23 23 24 24 23 24 25 25 25 26 26 26 26 26 26 26 26 26 26 27 27 27 27 27 27 27 27 28 28 27 27 27 27 28 28 28 29
23 23 24 25 25 25 25 25 25 25 25 26 27 27 28 28 28 29 29 29 29 29 29 29 29 29 30 30 30 30 30 30 29 29 29 28 28 29 29 29 30 30 30
26 26 27 27 27 27 27 27 28 27 27 28 29 30 30 31 31 31 32 32 32 32 32 33 32 32 31 32 32 32 31 31 30 31 31 30 31 31 31 31 32 32 32
29 29 30 30 30 30 30 30 31 30 30 30 31 32 32 33 34 34 34 35 35 35 34 34 34 33 34 34 33 33 33 32 32 32 32 32 32 33 33 32 33 33 33
31 31 31 32 33 32 33 33 33 33 33 33 33 34 35 36 36 36 36 36 36 36 35 35 34 35 36 36 35 35 34 34 34 33 33 34 34 34 34 33 33 33 32
32 32 33 34 34 35 35 35 36 36 36 35 35 35 36 37 37 36 37 38 37 36 37 37 37 36 36 36 36 36 35 36 35 34 34 34 34 34 34 34 34 34 34
33 33 34 34 34 34 35 36 37 37 37 37 37 37 36 37 36 36 36 37 36 35 36 37 38 37 37 37 37 37 37 37 37 36 35 35 35 35 35 35 36 35 35

GEFSMA_500_meanwind_240.txt.gz
Wind_Speed
11 11 10 9 9 8 8 8 7 7 5 5 5 6 5 5 5 5 5 6 6 5 6 6 6 6 6 7 7 7 7 7 7 7 7 7 7 7 7 7 7 7 7
9 9 9 8 8 7 7 7 7 6 5 5 5 6 5 5 5 5 5 5 6 6 6 6 7 7 7 7 7 8 8 8 7 7 7 8 8 8 8 8 8 8 8
9 8 8 7 7 7 7 7 7 5 5 5 6 6 6 6 5 5 5 5 5 6 6 6 6 6 7 7 7 7 8 8 8 8 8 8 8 9 9 9 9 10 10
8 8 8 8 7 7 6 6 6 5 5 5 5 6 6 6 6 5 5 5 5 5 6 6 7 7 8 8 8 9 9 9 9 9 9 9 9 9 9 10 10 11 11
8 7 8 7 6 6 5 5 6 5 5 5 6 6 6 6 6 6 6 6 6 7 7 8 8 9 9 9 10 10 10 10 10 11 11 10 10 10 11 11 11 11 11
6 6 6 6 5 5 5 5 5 5 5 5 6 6 6 5 6 6 7 7 7 8 8 9 9 9 10 10 10 11 11 12 12 11 12 11 11 12 12 12 12 12 12
5 5 5 5 4 4 4 4 5 5 5 5 5 6 6 6 6 6 7 7 8 9 9 9 10 10 11 11 11 12 13 13 13 13 13 13 12 13 13 13 14 14 13
5 5 5 5 5 5 5 5 5 5 5 5 5 6 7 7 7 8 8 8 9 10 10 11 11 11 11 12 12 13 13 14 14 14 14 14 14 14 13 14 14 15 14
5 6 6 6 6 6 6 6 6 6 6 6 7 7 8 8 9 9 9 9 10 10 11 11 12 12 12 12 12 13 13 13 14 15 15 15 15 15 14 15 16 15 15
6 6 7 7 7 7 7 7 8 8 8 8 9 9 9 10 10 10 11 11 12 11 11 12 12 12 12 12 12 13 14 14 15 15 15 16 16 17 17 17 18 17 16
7 7 7 7 8 8 8 9 10 10 10 10 10 11 11 11 12 12 12 13 13 13 13 14 14 14 13 13 13 14 14 15 15 16 17 17 17 18 18 18 18 18 18
8 8 9 9 9 10 10 10 11 11 12 12 12 13 13 13 13 14 14 14 15 15 15 15 16 16 15 15 15 15 15 15 15 16 17 18 19 19 19 19 19 18 19
10 10 11 11 12 12 12 12 13 13 13 14 14 15 15 15 15 16 16 16 16 17 17 17 17 17 17 17 16 16 16 17 17 17 17 18 18 19 19 19 19 19 19
12 12 13 13 13 14 14 14 15 15 16 16 16 16 17 17 17 17 17 18 18 18 18 18 18 18 18 18 18 18 18 18 18 18 18 18 19 20 20 21 20 21 21
13 14 14 15 16 16 17 18 18 18 18 18 18 18 18 18 18 19 19 19 19 19 19 19 19 19 20 20 20 20 19 19 19 19 19 20 20 21 21 22 22 22 22
15 15 16 17 17 18 19 19 19 20 20 20 20 21 21 20 20 20 20 20 20 21 21 21 21 21 21 22 22 21 21 20 21 21 22 22 22 23 23 23 23 23 23
17 18 18 18 19 20 20 20 20 21 22 22 21 22 22 21 22 22 21 21 21 21 22 22 23 23 23 23 23 24 23 23 23 24 24 24 24 24 24 24 24 24 24
19 20 20 20 20 21 21 21 21 21 21 22 22 23 23 23 23 23 23 23 23 23 24 24 25 25 25 25 25 25 25 25 25 25 26 26 26 26 26 25 25 25 26
22 22 22 23 22 22 23 23 23 23 23 23 23 23 23 24 24 25 25 25 26 26 26 26 26 27 27 27 27 27 27 27 27 27 27 27 27 27 27 26 26 27 27
24 24 25 25 25 25 25 26 25 25 25 25 24 25 25 26 27 27 27 27 28 28 28 28 28 29 29 29 29 29 29 29 29 29 29 28 28 28 28 28 28 28 29
27 27 27 28 28 27 27 28 29 29 28 27 27 27 27 28 29 29 30 30 30 30 30 30 31 31 31 31 31 32 32 32 32 32 32 31 31 31 30 30 30 30 31
30 31 31 31 30 30 30 29 30 31 32 31 30 30 30 30 31 32 32 33 33 33 33 33 33 33 33 33 33 34 34 34 33 33 34 34 33 33 33 32 32 32 32
32 32 33 33 33 33 32 32 33 33 33 32 32 33 33 34 34 34 35 35 36 36 35 34 34 34 34 35 36 35 35 35 34 34 34 34 34 35 35 35 34 34 33
33 34 35 35 35 35 35 34 34 34 34 34 34 34 35 36 36 37 37 37 38 37 37 37 36 37 37 36 37 37 36 37 37 36 35 35 35 35 36 35 34 34 33
34 34 35 35 35 36 36 35 34 35 35 35 35 35 36 36 37 38 39 39 39 39 39 38 38 39 39 39 38 38 38 39 39 37 36 36 36 36 36 35 35 34 34
34 35 35 36 36 35 35 35 35 35 36 36 36 36 37 38 39 39 40 41 41 39 39 39 39 40 40 40 40 39 39 40 39 38 37 37 37 36 36 35 35 35 35

GEFSMA_500_meanwind_246.txt.gz
Wind_Speed
6 7 6 6 5 4 4 3 2 3 3 3 3 3 3 2 2 3 3 3 4 4 5 5 5 5 6 6 6 6 6 7 6 6 6 6 6 6 7 6 6 5 5
5 6 5 5 5 4 3 3 2 3 4 3 3 3 2 2 2 2 2 3 3 4 4 4 5 5 5 5 6 6 6 6 7 6 7 7 7 7 7 7 6 6 6
4 4 4 4 4 4 3 3 3 3 4 3 3 3 3 3 3 2 2 3 4 4 5 5 5 5 5 6 6 6 6 6 6 7 7 7 7 8 8 8 8 8 8
4 3 4 4 4 4 3 3 3 4 4 4 4 3 3 4 3 3 4 4 5 5 5 5 5 6 6 6 6 6 7 7 7 7 8 8 8 8 8 8 9 9 9
4 3 3 4 4 4 4 3 3 3 4 4 4 3 3 4 4 4 4 5 5 6 6 6 6 7 7 7 7 7 8 8 9 9 9 9 9 9 10 10 10 10 10
4 3 3 3 4 4 4 3 2 3 4 4 4 4 4 4 5 5 5 5 5 6 6 7 7 7 7 8 8 8 9 9 9 10 10 10 10 10 11 11 11 11 11
3 3 4 4 3 3 3 3 3 4 5 5 5 5 5 5 5 5 5 6 6 7 7 7 7 7 8 9 9 9 9 10 10 10 10 11 10 11 11 12 12 12 12
3 4 4 4 3 3 3 4 4 4 6 6 6 6 5 5 6 6 6 7 7 8 7 7 8 9 9 10 10 10 11 11 11 11 11 11 11 11 12 13 13 13 13
2 3 4 5 5 4 4 5 5 6 7 7 7 6 7 7 8 8 8 9 9 9 9 9 10 10 10 10 10 10 11 12 12 12 12 12 12 13 13 13 13 14 13
5 5 5 6 6 6 6 6 7 8 8 9 8 8 9 9 10 10 10 10 10 10 10 10 11 11 11 11 12 12 12 13 13 13 13 13 14 14 14 14 15 15 15
6 7 7 7 7 7 7 8 8 8 9 10 10 10 10 10 11 11 12 12 12 13 13 13 12 12 13 13 13 14 14 14 14 14 14 15 15 15 15 15 15 16 15
8 8 8 8 9 9 9 9 10 10 11 11 11 12 12 13 13 14 13 14 14 15 15 15 15 15 15 15 15 16 16 16 16 16 16 16 16 15 15 16 16 16 16
10 10 10 10 10 11 11 12 12 12 13 13 14 14 14 15 15 15 15 16 17 17 17 17 17 17 16 16 17 17 17 17 18 18 18 18 17 17 17 17 17 17 17
12 12 12 12 12 13 14 14 14 14 14 15 15 16 17 17 18 18 18 18 18 19 19 18 18 18 18 18 18 18 18 19 19 19 20 20 19 19 18 18 18 18 18
13 13 14 14 14 15 16 16 16 16 16 17 18 18 19 20 20 20 20 19 19 19 20 20 20 20 20 20 19 20 20 20 20 20 21 21 21 20 20 20 20 20 20
16 16 16 17 17 17 17 18 17 18 19 19 20 21 21 21 21 21 21 20 20 21 20 21 22 22 22 21 21 21 22 22 21 22 22 22 22 22 23 22 22 21 22
18 19 19 19 19 19 19 20 19 19 20 21 22 23 23 23 23 23 23 23 23 22 22 22 23 23 23 22 22 22 23 22 22 23 23 24 24 25 24 24 24 24 24
20 20 20 20 21 21 22 22 21 22 23 24 24 25 25 25 25 24 25 24 24 24 24 23 24 24 25 24 24 24 24 24 24 24 25 25 25 26 26 26 26 26 26
22 21 21 22 23 23 23 24 25 25 25 26 26 27 27 27 26 26 26 26 25 25 25 25 26 26 27 26 25 25 25 26 26 26 26 26 27 27 27 27 27 27 27
23 23 24 24 25 25 25 26 27 27 27 28 28 29 29 28 28 29 27 27 27 28 28 28 28 28 29 28 28 27 28 28 28 28 28 27 27 28 28 28 27 27 28
26 26 26 26 27 28 28 28 29 29 30 30 30 31 31 30 30 29 29 29 30 31 30 30 30 30 30 30 30 30 30 30 30 30 30 29 30 29 29 29 29 29 29
28 28 28 28 29 30 30 31 32 32 32 32 32 33 33 33 32 32 32 32 32 32 32 33 33 33 32 33 33 33 32 32 32 33 33 32 32 31 31 31 31 31 31
29 30 30 30 31 31 31 32 33 33 33 33 34 35 35 35 34 34 34 35 35 35 35 35 34 34 35 35 35 35 35 35 35 35 35 34 34 33 32 32 32 32 32
31 31 31 31 31 31 32 32 33 34 35 36 36 36 37 37 36 35 36 36 37 37 36 37 36 36 37 37 37 37 37 37 37 37 37 36 35 35 34 33 33 33 33
33 33 33 33 33 33 34 34 35 35 35 36 37 37 37 37 37 36 37 37 38 38 37 37 37 38 39 39 39 39 39 40 40 39 39 39 38 37 36 35 34 34 34
35 35 35 36 36 35 35 35 35 36 36 36 36 36 36 36 36 37 37 36 37 37 38 39 39 39 40 40 40 40 41 41 41 41 40 41 40 39 37 36 36 35 35